,,Stat6,,Stat2,,Stat8,,Stat9,,Stat10,,Wind1,,Wind1,
time,status,PA1M_AVG,status,PR1M_SUM,status,RH1M_AVG,status,SR1M_AVG,status,TA1M_AVG,status,W1dAve1m,status,W1sAve1m,
2009-01-27, 00:00:00,VALID,918.048,VALID,0,VALID,96.8823,VALID,-0.0339617,VALID,20.6868,VALID,350,VALID,0,
2009-01-27, 00:01:00,VALID,918.031,VALID,0,VALID,96.9103,VALID,-0.0509425,VALID,20.6506,VALID,356,VALID,0.140092,
2009-01-27, 00:02:00,VALID,918.019,VALID,0,VALID,97.0896,VALID,-0.0169808,VALID,20.6319,VALID,122,VALID,0.592797,
2009-01-27, 00:03:00,VALID,918.007,VALID,0,VALID,97.2485,VALID,-0.0679233,VALID,20.5892,VALID,157,VALID,0.198509,
2009-01-27, 00:04:00,VALID,917.996,VALID,0,VALID,97.3426,VALID,-0.0169808,VALID,20.5338,VALID,157,VALID,0,
2009-01-27, 00:05:00,VALID,917.993,VALID,0,VALID,97.4532,VALID,-0.0849042,VALID,20.5051,VALID,159,VALID,0,
2009-01-27, 00:06:00,VALID,917.971,VALID,0,VALID,97.5537,VALID,-0.0339617,VALID,20.4754,VALID,162,VALID,0,
2009-01-27, 00:07:00,VALID,917.97,VALID,0,VALID,97.5842,VALID,0,VALID,20.4594,VALID,162,VALID,0,
2009-01-27, 00:08:00,VALID,917.94,VALID,0,VALID,97.5664,VALID,0,VALID,20.4689,VALID,162,VALID,0,
2009-01-27, 00:09:00,VALID,917.93,VALID,0,VALID,97.5753,VALID,-0.0339617,VALID,20.4921,VALID,162,VALID,0,
2009-01-27, 00:10:00,VALID,917.917,VALID,0,VALID,97.4609,VALID,-0.0509425,VALID,20.5116,VALID,162,VALID,0,
2009-01-27, 00:11:00,VALID,917.899,VALID,0,VALID,97.3973,VALID,-0.0339617,VALID,20.5408,VALID,162,VALID,0,
2009-01-27, 00:12:00,VALID,917.882,VALID,0,VALID,97.3337,VALID,-0.0509425,VALID,20.5662,VALID,162,VALID,0,
2009-01-27, 00:13:00,VALID,917.875,VALID,0,VALID,97.527,VALID,0,VALID,20.6187,VALID,160,VALID,0,
2009-01-27, 00:14:00,VALID,917.845,VALID,0,VALID,97.3401,VALID,-0.0169808,VALID,20.6212,VALID,168,VALID,0.85816,
2009-01-27, 00:15:00,VALID,917.841,VALID,0,VALID,97.1315,VALID,0,VALID,20.5887,VALID,178,VALID,0.881904,
2009-01-27, 00:16:00,VALID,917.818,VALID,0,VALID,96.8899,VALID,-0.0509425,VALID,20.57,VALID,176,VALID,1.39618,
2009-01-27, 00:17:00,VALID,917.811,VALID,0,VALID,96.8721,VALID,-0.0509425,VALID,20.5608,VALID,178,VALID,0.319922,
2009-01-27, 00:18:00,VALID,917.796,VALID,0,VALID,96.8187,VALID,-0.0509425,VALID,20.56,VALID,188,VALID,0.772711,
2009-01-27, 00:19:00,VALID,917.788,VALID,0,VALID,96.778,VALID,-0.0169808,VALID,20.5765,VALID,186,VALID,0.534598,
2009-01-27, 00:20:00,VALID,917.77,VALID,0,VALID,96.8085,VALID,-0.0339617,VALID,20.586,VALID,191,VALID,0,
2009-01-27, 00:21:00,VALID,917.769,VALID,0,VALID,96.7805,VALID,0,VALID,20.589,VALID,197,VALID,0.742188,
2009-01-27, 00:22:00,VALID,917.738,VALID,0,VALID,96.7907,VALID,-0.0509425,VALID,20.5892,VALID,190,VALID,0.258903,
2009-01-27, 00:23:00,VALID,917.713,VALID,0,VALID,96.7869,VALID,-0.0339617,VALID,20.593,VALID,191,VALID,0.606712,
2009-01-27, 00:24:00,VALID,917.702,VALID,0,VALID,96.689,VALID,-0.0169808,VALID,20.5762,VALID,191,VALID,0.221608,
2009-01-27, 00:25:00,VALID,917.694,VALID,0,VALID,96.7208,VALID,-0.0849042,VALID,20.5868,VALID,187,VALID,0.860283,
2009-01-27, 00:26:00,VALID,917.697,VALID,0,VALID,96.7615,VALID,-0.0679233,VALID,20.5862,VALID,175,VALID,0.00971799,
2009-01-27, 00:27:00,VALID,917.663,VALID,0,VALID,96.7182,VALID,-0.0339617,VALID,20.5868,VALID,191,VALID,0.314918,
2009-01-27, 00:28:00,VALID,917.652,VALID,0,VALID,96.6699,VALID,-0.0509425,VALID,20.5932,VALID,195,VALID,0.20839,
2009-01-27, 00:29:00,VALID,917.642,VALID,0,VALID,96.6432,VALID,-0.0679233,VALID,20.5895,VALID,193,VALID,0.126488,
2009-01-27, 00:30:00,VALID,917.647,VALID,0,VALID,96.6394,VALID,-0.0509425,VALID,20.6019,VALID,200,VALID,0.0436046,
2009-01-27, 00:31:00,VALID,917.636,VALID,0,VALID,96.5631,VALID,-0.0509425,VALID,20.5884,VALID,192,VALID,0.0942827,
2009-01-27, 00:32:00,VALID,917.651,VALID,0,VALID,96.5084,VALID,-0.0509425,VALID,20.6022,VALID,191,VALID,0.534702,
2009-01-27, 00:33:00,VALID,917.648,VALID,0,VALID,96.4983,VALID,0,VALID,20.599,VALID,194,VALID,1.08222,
2009-01-27, 00:34:00,VALID,917.664,VALID,0,VALID,96.0977,VALID,-0.0169808,VALID,20.586,VALID,185,VALID,1.59277,
2009-01-27, 00:35:00,VALID,917.665,VALID,0,VALID,95.8141,VALID,-0.0509425,VALID,20.6049,VALID,202,VALID,0.712936,
2009-01-27, 00:36:00,VALID,917.679,VALID,0,VALID,95.6539,VALID,-0.0169808,VALID,20.6704,VALID,201,VALID,0.39234,
2009-01-27, 00:37:00,VALID,917.678,VALID,0,VALID,95.6539,VALID,-0.0339617,VALID,20.6928,VALID,176,VALID,0.58194,
2009-01-27, 00:38:00,VALID,917.704,VALID,0,VALID,95.6081,VALID,-0.0679233,VALID,20.6763,VALID,159,VALID,1.49479,
2009-01-27, 00:39:00,VALID,917.733,VALID,0,VALID,95.3029,VALID,-0.0339617,VALID,20.6439,VALID,155,VALID,2.1513,
2009-01-27, 00:40:00,VALID,917.746,VALID,0,VALID,95.0715,VALID,-0.0509425,VALID,20.6636,VALID,140,VALID,1.5129,
2009-01-27, 00:41:00,VALID,917.74,VALID,0,VALID,94.8655,VALID,-0.0339617,VALID,20.7153,VALID,176,VALID,1.41215,
2009-01-27, 00:42:00,VALID,917.747,VALID,0,VALID,94.6176,VALID,-0.0339617,VALID,20.7345,VALID,166,VALID,1.46317,
2009-01-27, 00:43:00,VALID,917.755,VALID,0,VALID,94.5349,VALID,-0.0849042,VALID,20.771,VALID,157,VALID,0.209077,
2009-01-27, 00:44:00,VALID,917.758,VALID,0,VALID,94.4624,VALID,-0.0339617,VALID,20.7707,VALID,175,VALID,1.32922,
2009-01-27, 00:45:00,VALID,917.747,VALID,0,VALID,94.3912,VALID,-0.0509425,VALID,20.7575,VALID,165,VALID,0.581055,
2009-01-27, 00:46:00,VALID,917.75,VALID,0,VALID,94.2742,VALID,-0.0679233,VALID,20.7742,VALID,172,VALID,1.5718,
2009-01-27, 00:47:00,VALID,917.746,VALID,0,VALID,94.114,VALID,-0.0509425,VALID,20.8037,VALID,157,VALID,1.68955,
2009-01-27, 00:48:00,VALID,917.723,VALID,0,VALID,94.1661,VALID,-0.0509425,VALID,20.8134,VALID,152,VALID,1.22154,
2009-01-27, 00:49:00,VALID,917.732,VALID,0,VALID,94.2005,VALID,-0.0339617,VALID,20.7967,VALID,160,VALID,1.89788,
2009-01-27, 00:50:00,VALID,917.72,VALID,0,VALID,93.9436,VALID,-0.0509425,VALID,20.7929,VALID,155,VALID,1.78924,
2009-01-27, 00:51:00,VALID,917.711,VALID,0,VALID,93.8597,VALID,-0.0509425,VALID,20.8234,VALID,144,VALID,2.06612,
2009-01-27, 00:52:00,VALID,917.69,VALID,0,VALID,93.9029,VALID,-0.0679233,VALID,20.8194,VALID,174,VALID,1.84322,
2009-01-27, 00:53:00,VALID,917.682,VALID,0,VALID,94.039,VALID,-0.0509425,VALID,20.8324,VALID,141,VALID,1.25727,
2009-01-27, 00:54:00,VALID,917.654,VALID,0,VALID,94.1649,VALID,-0.0509425,VALID,20.8104,VALID,141,VALID,1.49824,
2009-01-27, 00:55:00,VALID,917.648,VALID,0,VALID,94.3645,VALID,-0.101885,VALID,20.7515,VALID,136,VALID,1.71094,
2009-01-27, 00:56:00,VALID,917.636,VALID,0,VALID,94.2704,VALID,-0.0849042,VALID,20.7283,VALID,144,VALID,2.14045,
2009-01-27, 00:57:00,VALID,917.621,VALID,0,VALID,93.7847,VALID,-0.0509425,VALID,20.784,VALID,136,VALID,2.73295,
2009-01-27, 00:58:00,VALID,917.603,VALID,0,VALID,93.6473,VALID,-0.0509425,VALID,20.8383,VALID,121,VALID,1.50335,
2009-01-27, 00:59:00,VALID,917.591,VALID,0,VALID,93.852,VALID,-0.0339617,VALID,20.8291,VALID,113,VALID,1.43883,
2009-01-27, 01:00:00,VALID,917.581,VALID,0,VALID,94.0313,VALID,-0.0169808,VALID,20.7869,VALID,133,VALID,1.96205,
2009-01-27, 01:01:00,VALID,917.596,VALID,0,VALID,94.1432,VALID,-0.0849042,VALID,20.784,VALID,135,VALID,1.93434,
2009-01-27, 01:02:00,VALID,917.595,VALID,0,VALID,93.9449,VALID,-0.0849042,VALID,20.7769,VALID,129,VALID,1.43471,
2009-01-27, 01:03:00,VALID,917.589,VALID,0,VALID,93.8368,VALID,-0.0169808,VALID,20.8164,VALID,142,VALID,1.60249,
2009-01-27, 01:04:00,VALID,917.587,VALID,0,VALID,93.571,VALID,-0.0509425,VALID,20.8426,VALID,131,VALID,1.67113,
2009-01-27, 01:05:00,VALID,917.58,VALID,0,VALID,93.5532,VALID,-0.0679233,VALID,20.8616,VALID,137,VALID,1.57067,
2009-01-27, 01:06:00,VALID,917.558,VALID,0,VALID,93.6193,VALID,-0.0169808,VALID,20.8548,VALID,153,VALID,1.18304,
2009-01-27, 01:07:00,VALID,917.566,VALID,0,VALID,93.6422,VALID,-0.0679233,VALID,20.8519,VALID,145,VALID,1.76107,
2009-01-27, 01:08:00,VALID,917.566,VALID,0,VALID,93.6651,VALID,-0.101885,VALID,20.8494,VALID,149,VALID,1.58939,
2009-01-27, 01:09:00,VALID,917.565,VALID,0,VALID,93.6778,VALID,-0.0849042,VALID,20.8359,VALID,153,VALID,1.41257,
2009-01-27, 01:10:00,VALID,917.56,VALID,0,VALID,93.2709,VALID,-0.0679233,VALID,20.8364,VALID,151,VALID,2.04478,
2009-01-27, 01:11:00,VALID,917.558,VALID,0,VALID,93.0141,VALID,-0.0679233,VALID,20.8816,VALID,154,VALID,1.40604,
2009-01-27, 01:12:00,VALID,917.568,VALID,0,VALID,92.817,VALID,-0.0849042,VALID,20.9011,VALID,138,VALID,1.89672,
2009-01-27, 01:13:00,VALID,917.569,VALID,0,VALID,92.8411,VALID,-0.0679233,VALID,20.8976,VALID,146,VALID,1.74115,
2009-01-27, 01:14:00,VALID,917.576,VALID,0,VALID,92.6949,VALID,-0.0509425,VALID,20.8811,VALID,158,VALID,1.90412,
2009-01-27, 01:15:00,VALID,917.571,VALID,0,VALID,92.6466,VALID,-0.0169808,VALID,20.9,VALID,145,VALID,1.32156,
2009-01-27, 01:16:00,VALID,917.579,VALID,0,VALID,92.7559,VALID,-0.0169808,VALID,20.907,VALID,137,VALID,1.36172,
2009-01-27, 01:17:00,VALID,917.551,VALID,0,VALID,92.7559,VALID,-0.0509425,VALID,20.8911,VALID,143,VALID,1.75561,
2009-01-27, 01:18:00,VALID,917.539,VALID,0,VALID,92.6911,VALID,-0.0339617,VALID,20.8678,VALID,137,VALID,1.68464,
2009-01-27, 01:19:00,VALID,917.533,VALID,0,VALID,92.6809,VALID,-0.0509425,VALID,20.8913,VALID,137,VALID,1.275,
2009-01-27, 01:20:00,VALID,917.505,VALID,0,VALID,92.6313,VALID,-0.0339617,VALID,20.8746,VALID,119,VALID,1.31064,
2009-01-27, 01:21:00,VALID,917.484,VALID,0,VALID,92.8182,VALID,-0.0679233,VALID,20.8746,VALID,115,VALID,1.0069,
2009-01-27, 01:22:00,VALID,917.476,VALID,0,VALID,92.8449,VALID,-0.0169808,VALID,20.8551,VALID,114,VALID,1.31854,
2009-01-27, 01:23:00,VALID,917.456,VALID,0,VALID,92.8309,VALID,0,VALID,20.8548,VALID,126,VALID,1.12109,
2009-01-27, 01:24:00,VALID,917.448,VALID,0,VALID,92.7763,VALID,-0.0509425,VALID,20.8583,VALID,127,VALID,0.922045,
2009-01-27, 01:25:00,VALID,917.44,VALID,0,VALID,92.8068,VALID,-0.0339617,VALID,20.8651,VALID,120,VALID,1.26435,
2009-01-27, 01:26:00,VALID,917.44,VALID,0,VALID,92.7305,VALID,-0.0339617,VALID,20.8481,VALID,130,VALID,1.58919,
2009-01-27, 01:27:00,VALID,917.442,VALID,0,VALID,92.6796,VALID,-0.0339617,VALID,20.8646,VALID,124,VALID,1.46782,
2009-01-27, 01:28:00,VALID,917.438,VALID,0,VALID,92.6288,VALID,0,VALID,20.8773,VALID,114,VALID,1.12557,
2009-01-27, 01:29:00,VALID,917.425,VALID,0,VALID,92.686,VALID,-0.0169808,VALID,20.8773,VALID,127,VALID,1.28356,
2009-01-27, 01:30:00,VALID,917.427,VALID,0,VALID,92.7674,VALID,-0.0169808,VALID,20.8676,VALID,131,VALID,1.56971,
2009-01-27, 01:31:00,VALID,917.399,VALID,0,VALID,92.7674,VALID,0,VALID,20.8446,VALID,136,VALID,1.63045,
2009-01-27, 01:32:00,VALID,917.38,VALID,0,VALID,92.6733,VALID,0,VALID,20.8616,VALID,130,VALID,1.77326,
2009-01-27, 01:33:00,VALID,917.366,VALID,0,VALID,92.672,VALID,0,VALID,20.8676,VALID,127,VALID,1.39304,
2009-01-27, 01:34:00,VALID,917.344,VALID,0,VALID,92.6326,VALID,0.0169808,VALID,20.8676,VALID,137,VALID,1.22202,
2009-01-27, 01:35:00,VALID,917.325,VALID,0,VALID,92.6466,VALID,0,VALID,20.8708,VALID,137,VALID,1.37824,
2009-01-27, 01:36:00,VALID,917.306,VALID,0,VALID,92.63,VALID,0,VALID,20.8843,VALID,133,VALID,1.68056,
2009-01-27, 01:37:00,VALID,917.308,VALID,0,VALID,92.864,VALID,-0.0169808,VALID,20.8708,VALID,114,VALID,0.833854,
2009-01-27, 01:38:00,VALID,917.283,VALID,0,VALID,93.0764,VALID,-0.0169808,VALID,20.8419,VALID,124,VALID,1.4011,
2009-01-27, 01:39:00,VALID,917.263,VALID,0,VALID,93.2417,VALID,-0.0679233,VALID,20.8159,VALID,113,VALID,1.01835,
2009-01-27, 01:40:00,VALID,917.236,VALID,0,VALID,93.2976,VALID,0,VALID,20.8002,VALID,128,VALID,1.31323,
2009-01-27, 01:41:00,VALID,917.222,VALID,0,VALID,93.3688,VALID,-0.0339617,VALID,20.7869,VALID,134,VALID,1.62909,
2009-01-27, 01:42:00,VALID,917.18,VALID,0,VALID,93.543,VALID,0,VALID,20.7737,VALID,129,VALID,1.07682,
2009-01-27, 01:43:00,VALID,917.161,VALID,0,VALID,93.6549,VALID,0,VALID,20.745,VALID,135,VALID,1.39955,
2009-01-27, 01:44:00,VALID,917.163,VALID,0,VALID,93.6562,VALID,-0.0339617,VALID,20.728,VALID,136,VALID,1.50254,
2009-01-27, 01:45:00,VALID,917.147,VALID,0,VALID,93.7312,VALID,-0.0169808,VALID,20.741,VALID,135,VALID,1.64912,
2009-01-27, 01:46:00,VALID,917.14,VALID,0,VALID,93.7757,VALID,0,VALID,20.7312,VALID,143,VALID,2.08949,
2009-01-27, 01:47:00,VALID,917.135,VALID,0,VALID,93.7872,VALID,0,VALID,20.7312,VALID,131,VALID,1.11068,
2009-01-27, 01:48:00,VALID,917.116,VALID,0,VALID,93.8431,VALID,-0.0169808,VALID,20.735,VALID,128,VALID,1.19158,
2009-01-27, 01:49:00,VALID,917.093,VALID,0,VALID,93.7096,VALID,-0.0339617,VALID,20.735,VALID,146,VALID,1.45461,
2009-01-27, 01:50:00,VALID,917.082,VALID,0,VALID,93.8037,VALID,-0.0169808,VALID,20.7477,VALID,145,VALID,0.998326,
2009-01-27, 01:51:00,VALID,917.069,VALID,0,VALID,93.8851,VALID,-0.0339617,VALID,20.7377,VALID,162,VALID,1.36592,
2009-01-27, 01:52:00,VALID,917.06,VALID,0,VALID,94.1293,VALID,-0.0169808,VALID,20.7183,VALID,166,VALID,0.968555,
2009-01-27, 01:53:00,VALID,917.063,VALID,0,VALID,94.3149,VALID,-0.0339617,VALID,20.7093,VALID,161,VALID,1.4794,
2009-01-27, 01:54:00,VALID,917.052,VALID,0,VALID,94.3836,VALID,-0.0169808,VALID,20.6998,VALID,168,VALID,0.960428,
2009-01-27, 01:55:00,VALID,917.043,VALID,0,VALID,94.4395,VALID,-0.0169808,VALID,20.6961,VALID,164,VALID,1.46824,
2009-01-27, 01:56:00,VALID,917.029,VALID,0,VALID,94.3442,VALID,0,VALID,20.6793,VALID,186,VALID,1.55228,
2009-01-27, 01:57:00,VALID,917.035,VALID,0,VALID,94.5095,VALID,0,VALID,20.6958,VALID,166,VALID,1.2033,
2009-01-27, 01:58:00,VALID,917.03,VALID,0,VALID,94.5781,VALID,0,VALID,20.6831,VALID,175,VALID,1.65272,
2009-01-27, 01:59:00,VALID,917.04,VALID,0,VALID,94.5807,VALID,0.0169808,VALID,20.6501,VALID,165,VALID,1.44449,
2009-01-27, 02:00:00,VALID,917.02,VALID,0,VALID,94.629,VALID,0,VALID,20.6566,VALID,163,VALID,1.21275,
2009-01-27, 02:01:00,VALID,917.006,VALID,0,VALID,94.643,VALID,-0.0169808,VALID,20.6604,VALID,170,VALID,1.15549,
2009-01-27, 02:02:00,VALID,917.01,VALID,0,VALID,94.7498,VALID,-0.0339617,VALID,20.6504,VALID,160,VALID,0.940476,
2009-01-27, 02:03:00,VALID,916.986,VALID,0,VALID,94.8007,VALID,0,VALID,20.6509,VALID,164,VALID,1.09084,
2009-01-27, 02:04:00,VALID,916.973,VALID,0,VALID,94.6811,VALID,-0.0169808,VALID,20.6406,VALID,175,VALID,1.14698,
2009-01-27, 02:05:00,VALID,916.957,VALID,0,VALID,94.5145,VALID,0.0169808,VALID,20.6469,VALID,175,VALID,0.373698,
2009-01-27, 02:06:00,VALID,916.945,VALID,0,VALID,94.3861,VALID,-0.0169808,VALID,20.6796,VALID,170,VALID,1.0322,
2009-01-27, 02:07:00,VALID,916.959,VALID,0,VALID,94.4408,VALID,-0.0169808,VALID,20.6861,VALID,166,VALID,0.521528,
2009-01-27, 02:08:00,VALID,916.956,VALID,0,VALID,94.334,VALID,-0.0169808,VALID,20.6766,VALID,178,VALID,0.641741,
2009-01-27, 02:09:00,VALID,916.974,VALID,0,VALID,94.3162,VALID,-0.0169808,VALID,20.6798,VALID,174,VALID,1.01658,
2009-01-27, 02:10:00,VALID,916.972,VALID,0,VALID,94.3149,VALID,-0.0339617,VALID,20.6866,VALID,172,VALID,0.613567,
2009-01-27, 02:11:00,VALID,916.985,VALID,0,VALID,94.3848,VALID,-0.0169808,VALID,20.6896,VALID,169,VALID,1.09103,
2009-01-27, 02:12:00,VALID,916.992,VALID,0,VALID,94.5285,VALID,-0.0339617,VALID,20.6728,VALID,181,VALID,0.727121,
2009-01-27, 02:13:00,VALID,916.988,VALID,0,VALID,94.7053,VALID,-0.0169808,VALID,20.6766,VALID,159,VALID,0.736523,
2009-01-27, 02:14:00,VALID,916.985,VALID,0,VALID,94.7053,VALID,0,VALID,20.6671,VALID,160,VALID,0.542597,
2009-01-27, 02:15:01,VALID,916.97,VALID,0,VALID,94.8096,VALID,0,VALID,20.6406,VALID,147,VALID,0.837652,
2009-01-27, 02:16:00,VALID,916.974,VALID,0,VALID,94.8007,VALID,0,VALID,20.6182,VALID,152,VALID,1.30268,
2009-01-27, 02:17:00,VALID,916.97,VALID,0,VALID,94.9266,VALID,-0.0339617,VALID,20.6022,VALID,146,VALID,0.887005,
2009-01-27, 02:18:00,VALID,916.961,VALID,0,VALID,95.0423,VALID,-0.0339617,VALID,20.6084,VALID,160,VALID,0.81808,
2009-01-27, 02:19:00,VALID,916.938,VALID,0,VALID,95.0016,VALID,-0.0849042,VALID,20.6054,VALID,165,VALID,0.94494,
2009-01-27, 02:20:00,VALID,916.94,VALID,0,VALID,95.0855,VALID,-0.0679233,VALID,20.606,VALID,165,VALID,0.835352,
2009-01-27, 02:21:00,VALID,916.911,VALID,0,VALID,94.9189,VALID,-0.0679233,VALID,20.5927,VALID,162,VALID,1.68285,
2009-01-27, 02:22:00,VALID,916.883,VALID,0,VALID,94.9164,VALID,-0.0509425,VALID,20.593,VALID,160,VALID,1.14577,
2009-01-27, 02:23:00,VALID,916.871,VALID,0,VALID,94.9672,VALID,-0.101885,VALID,20.5965,VALID,175,VALID,0.188859,
2009-01-27, 02:24:01,VALID,916.862,VALID,0,VALID,95.0117,VALID,-0.118866,VALID,20.593,VALID,167,VALID,0.474746,
2009-01-27, 02:25:00,VALID,916.843,VALID,0,VALID,95.0842,VALID,-0.101885,VALID,20.5832,VALID,160,VALID,0.235899,
2009-01-27, 02:26:00,VALID,916.831,VALID,0,VALID,95.1961,VALID,-0.101885,VALID,20.577,VALID,171,VALID,0.580793,
2009-01-27, 02:27:00,VALID,916.804,VALID,0,VALID,95.1961,VALID,-0.0679233,VALID,20.557,VALID,163,VALID,1.25156,
2009-01-27, 02:28:00,VALID,916.784,VALID,0,VALID,95.247,VALID,-0.0849042,VALID,20.5343,VALID,156,VALID,1.12979,
2009-01-27, 02:29:00,VALID,916.772,VALID,0,VALID,95.3907,VALID,-0.0679233,VALID,20.5178,VALID,162,VALID,0.834635,
2009-01-27, 02:30:00,VALID,916.741,VALID,0,VALID,95.4975,VALID,-0.101885,VALID,20.4991,VALID,168,VALID,1.48295,
2009-01-27, 02:31:01,VALID,916.72,VALID,0,VALID,95.6323,VALID,-0.101885,VALID,20.4759,VALID,178,VALID,1.5665,
2009-01-27, 02:32:00,VALID,916.703,VALID,0,VALID,95.6463,VALID,-0.0849042,VALID,20.4632,VALID,171,VALID,1.16273,
2009-01-27, 02:33:01,VALID,916.695,VALID,0,VALID,95.7811,VALID,-0.101885,VALID,20.4567,VALID,157,VALID,0.671317,
2009-01-27, 02:34:00,VALID,916.687,VALID,0,VALID,95.837,VALID,-0.0849042,VALID,20.4502,VALID,169,VALID,0.300071,
2009-01-27, 02:35:00,VALID,916.677,VALID,0,VALID,95.8357,VALID,-0.0509425,VALID,20.4234,VALID,167,VALID,0.668636,
2009-01-27, 02:36:00,VALID,916.673,VALID,0,VALID,95.8904,VALID,-0.0339617,VALID,20.4145,VALID,164,VALID,0.541159,
2009-01-27, 02:37:00,VALID,916.681,VALID,0,VALID,96.0494,VALID,-0.0849042,VALID,20.411,VALID,180,VALID,0.504084,
2009-01-27, 02:38:00,VALID,916.687,VALID,0,VALID,96.043,VALID,-0.0679233,VALID,20.3977,VALID,173,VALID,0.638808,
2009-01-27, 02:39:01,VALID,916.683,VALID,0,VALID,96.0875,VALID,-0.0509425,VALID,20.3945,VALID,144,VALID,0.834847,
2009-01-27, 02:40:01,VALID,916.675,VALID,0,VALID,96.1536,VALID,-0.0679233,VALID,20.3818,VALID,152,VALID,1.10026,
2009-01-27, 02:41:01,VALID,916.666,VALID,0,VALID,96.2846,VALID,-0.0679233,VALID,20.3493,VALID,148,VALID,1.17097,
2009-01-27, 02:42:00,VALID,916.665,VALID,0,VALID,96.4105,VALID,-0.0679233,VALID,20.3328,VALID,143,VALID,1.18083,
2009-01-27, 02:43:00,VALID,916.653,VALID,0,VALID,96.4614,VALID,-0.0849042,VALID,20.3266,VALID,150,VALID,1.4186,
2009-01-27, 02:44:01,VALID,916.624,VALID,0,VALID,96.5224,VALID,-0.0679233,VALID,20.3134,VALID,138,VALID,1.35903,
2009-01-27, 02:45:00,VALID,916.605,VALID,0,VALID,96.6152,VALID,-0.0679233,VALID,20.3036,VALID,133,VALID,1.27273,
2009-01-27, 02:46:01,VALID,916.594,VALID,0,VALID,96.7093,VALID,-0.0849042,VALID,20.2874,VALID,150,VALID,1.14258,
2009-01-27, 02:47:01,VALID,916.591,VALID,0,VALID,96.7526,VALID,-0.101885,VALID,20.2817,VALID,140,VALID,1.56623,
2009-01-27, 02:48:00,VALID,916.574,VALID,0,VALID,96.8225,VALID,-0.101885,VALID,20.2712,VALID,150,VALID,1.10411,
2009-01-27, 02:49:00,VALID,916.564,VALID,0,VALID,96.8785,VALID,-0.0169808,VALID,20.2712,VALID,141,VALID,0.8508,
2009-01-27, 02:50:00,VALID,916.57,VALID,0,VALID,96.7907,VALID,-0.101885,VALID,20.2717,VALID,137,VALID,1.61097,
2009-01-27, 02:51:00,VALID,916.557,VALID,0,VALID,96.7984,VALID,-0.101885,VALID,20.2682,VALID,136,VALID,0.961739,
2009-01-27, 02:52:00,VALID,916.538,VALID,0,VALID,96.8301,VALID,-0.0849042,VALID,20.2652,VALID,137,VALID,0.772321,
2009-01-27, 02:53:00,VALID,916.525,VALID,0,VALID,96.895,VALID,-0.0679233,VALID,20.2555,VALID,138,VALID,0.971037,
2009-01-27, 02:54:00,VALID,916.527,VALID,0,VALID,96.9942,VALID,-0.0849042,VALID,20.252,VALID,138,VALID,0.654647,
2009-01-27, 02:55:01,VALID,916.526,VALID,0,VALID,97.0476,VALID,-0.0849042,VALID,20.232,VALID,127,VALID,0.0548735,
2009-01-27, 02:56:01,VALID,916.507,VALID,0,VALID,97.0209,VALID,-0.0849042,VALID,20.2257,VALID,138,VALID,1.03944,
2009-01-27, 02:57:01,VALID,916.494,VALID,0,VALID,97.1277,VALID,-0.0849042,VALID,20.2257,VALID,135,VALID,0.370916,
2009-01-27, 02:58:01,VALID,916.485,VALID,0,VALID,97.1455,VALID,-0.0679233,VALID,20.216,VALID,146,VALID,0.764844,
2009-01-27, 02:59:00,VALID,916.491,VALID,0,VALID,97.1633,VALID,-0.0339617,VALID,20.2192,VALID,143,VALID,0.526972,
2009-01-27, 03:00:00,VALID,916.475,VALID,0,VALID,97.2307,VALID,-0.0339617,VALID,20.1933,VALID,134,VALID,0.778409,
2009-01-27, 03:01:00,VALID,916.468,VALID,0,VALID,97.3464,VALID,-0.0849042,VALID,20.1806,VALID,139,VALID,0.504167,
2009-01-27, 03:02:01,VALID,916.463,VALID,0,VALID,97.4545,VALID,-0.0509425,VALID,20.1476,VALID,141,VALID,0.427269,
2009-01-27, 03:03:01,VALID,916.452,VALID,0,VALID,97.5906,VALID,-0.0679233,VALID,20.1349,VALID,144,VALID,0.564453,
2009-01-27, 03:04:01,VALID,916.456,VALID,0,VALID,97.6427,VALID,-0.0679233,VALID,20.1221,VALID,143,VALID,0.636083,
2009-01-27, 03:05:00,VALID,916.459,VALID,0,VALID,97.7521,VALID,-0.0679233,VALID,20.1024,VALID,168,VALID,0.106468,
2009-01-27, 03:06:01,VALID,916.458,VALID,0,VALID,97.7559,VALID,-0.0849042,VALID,20.0954,VALID,159,VALID,0.559896,
2009-01-27, 03:07:01,VALID,916.458,VALID,0,VALID,97.761,VALID,-0.0679233,VALID,20.1119,VALID,159,VALID,0,
2009-01-27, 03:08:01,VALID,916.475,VALID,0,VALID,97.7393,VALID,-0.0679233,VALID,20.1186,VALID,169,VALID,0.289595,
2009-01-27, 03:09:01,VALID,916.487,VALID,0,VALID,97.7381,VALID,-0.0339617,VALID,20.1346,VALID,154,VALID,0,
2009-01-27, 03:10:01,VALID,916.497,VALID,0,VALID,97.7012,VALID,-0.0339617,VALID,20.1479,VALID,154,VALID,0.764844,
2009-01-27, 03:11:01,VALID,916.514,VALID,0,VALID,97.6402,VALID,-0.0849042,VALID,20.1414,VALID,148,VALID,0.0917515,
2009-01-27, 03:12:01,VALID,916.533,VALID,0,VALID,97.6719,VALID,-0.118866,VALID,20.1486,VALID,162,VALID,0.106517,
2009-01-27, 03:13:00,VALID,916.529,VALID,0,VALID,97.705,VALID,-0.0849042,VALID,20.1481,VALID,133,VALID,0.221413,
2009-01-27, 03:14:00,VALID,916.535,VALID,0,VALID,97.7381,VALID,-0.0849042,VALID,20.1581,VALID,153,VALID,0.65811,
2009-01-27, 03:15:00,VALID,916.544,VALID,0,VALID,97.6694,VALID,-0.0849042,VALID,20.1508,VALID,137,VALID,0.995206,
2009-01-27, 03:16:00,VALID,916.55,VALID,0,VALID,97.5689,VALID,-0.0509425,VALID,20.1576,VALID,172,VALID,0.376953,
2009-01-27, 03:17:00,VALID,916.548,VALID,0,VALID,97.4202,VALID,-0.0849042,VALID,20.1776,VALID,175,VALID,0.479688,
2009-01-27, 03:18:00,VALID,916.557,VALID,0,VALID,97.1722,VALID,-0.0849042,VALID,20.1963,VALID,155,VALID,0.147372,
2009-01-27, 03:19:00,VALID,916.555,VALID,0,VALID,96.9522,VALID,-0.0849042,VALID,20.2422,VALID,176,VALID,0.103161,
2009-01-27, 03:20:00,VALID,916.554,VALID,0,VALID,96.7055,VALID,-0.101885,VALID,20.2944,VALID,159,VALID,0.151727,
2009-01-27, 03:21:00,VALID,916.571,VALID,0,VALID,96.4932,VALID,-0.0849042,VALID,20.3166,VALID,140,VALID,0.0245276,
2009-01-27, 03:22:00,VALID,916.573,VALID,0,VALID,96.3151,VALID,-0.0849042,VALID,20.3531,VALID,142,VALID,0.389266,
2009-01-27, 03:23:00,VALID,916.582,VALID,0,VALID,96.146,VALID,0,VALID,20.3637,VALID,141,VALID,0,
2009-01-27, 03:24:00,VALID,916.592,VALID,0,VALID,95.9248,VALID,0.0339617,VALID,20.3867,VALID,127,VALID,0,
2009-01-27, 03:25:00,VALID,916.593,VALID,0,VALID,95.8243,VALID,0.0509425,VALID,20.4022,VALID,131,VALID,0.329327,
2009-01-27, 03:26:00,VALID,916.608,VALID,0,VALID,95.6781,VALID,0.0339617,VALID,20.4154,VALID,116,VALID,0.743118,
2009-01-27, 03:27:00,VALID,916.623,VALID,0,VALID,95.3996,VALID,0.0339617,VALID,20.4184,VALID,136,VALID,0.402616,
2009-01-27, 03:28:00,VALID,916.619,VALID,0,VALID,94.9444,VALID,0.0339617,VALID,20.4871,VALID,161,VALID,0.354688,
2009-01-27, 03:29:00,VALID,916.614,VALID,0,VALID,94.5324,VALID,0.0509425,VALID,20.5447,VALID,154,VALID,0.161685,
2009-01-27, 03:30:00,VALID,916.608,VALID,0,VALID,94.2195,VALID,0.0339617,VALID,20.6193,VALID,145,VALID,0.716388,
2009-01-27, 03:31:00,VALID,916.609,VALID,0,VALID,94.1471,VALID,0.0509425,VALID,20.6388,VALID,128,VALID,0,